Regional Weather Roundup
Issued by NWS

Home | Current Version | Previous Version | Text Only | Print | Product List | Glossary On
Versions: 1 2 3 4 5 6 7 8 9 10 11 12 13 14 15 16 17 18 19 20 21 22 23 24 25 26 27 28
000
ASUS45 KSLC 211610
RWRUT

UTAH REGIONAL WEATHER ROUNDUP
NATIONAL WEATHER SERVICE SALT LAKE CITY UT
1000 AM MDT MON APR 21 2014

UTZ001>011-023>025-211700-

NORTHERN UTAH

CITY           SKY/WX    TMP DP  RH WIND       PRES   REMARKS
DUGWAY         PTSUNNY   56  23  27 W3        30.22R
HILL AFB       MOSUNNY   53  24  32 E12       30.22R
LOGAN          SUNNY     45  26  47 NW3       30.25F
OGDEN          MOSUNNY   56  26  31 N7        30.21S
PROVO AIRPORT  NOT AVBL
SALT LAKE CITY MOSUNNY   57  26  30 E5        30.20S
VERNAL         SUNNY     56  34  43 VRB5      30.25F
WENDOVER       SUNNY     55  18  22 SW5       30.21S
HEBER CITY     SUNNY     46  23  39 CALM      30.26F
WEST JORDAN    SUNNY     55  34  44 SE3       30.21F

$$

UTZ012>022-026-027-211700-

SOUTHERN UTAH

CITY           SKY/WX    TMP DP  RH WIND       PRES   REMARKS
BRYCE CANYON   PTSUNNY   57  34  41 CALM      30.34S
CEDAR CITY     SUNNY     59  30  33 NW5       30.23S
MILFORD        MOSUNNY   60  24  25 NE5       30.21F
MOAB/CYNLANDS  SUNNY     63  38  39 E7        30.20S
PRICE          SUNNY     60  19  20 CALM      30.25S
ST GEORGE      SUNNY     68  34  28 CALM      30.15S
KANAB            N/A     64  32  29 CALM      30.25F

$$

REGIONAL REPORTS     COLORADO/ARIZONA

CITY           SKY/WX    TMP DP  RH WIND       PRES   REMARKS
CRAIG, CO      SUNNY     50  37  61 CALM      30.28S
GRAND JUNCTION SUNNY     57  37  47 SE6       30.24S
RIFLE          SUNNY     52  37  56 CALM      30.28F
MONTROSE       SUNNY     58  33  39 CALM      30.29S
CORTEZ         SUNNY     61  33  35 CALM      30.26F
PAGE, AZ       SUNNY     68  35  29 CALM      30.19S
GRAND CANYON   SUNNY     65  28  24 VRB5      30.31S
KINGMAN        SUNNY     77  33  20 E5        30.13S
FLAGSTAFF      SUNNY     63  33  32 E8        30.32R

$$

REGIONAL REPORTS    NEVADA/IDAHO/WYOMING

CITY           SKY/WX    TMP DP  RH WIND       PRES   REMARKS
LAS VEGAS, NV  MOSUNNY   77  33  20 S6        30.01S
ELY            SUNNY     53  26  35 S5        30.23F
ELKO           SUNNY     48  17  29 NE5       30.18F
POCATELLO, ID  SUNNY     54  18  24 E12       30.21F
BURLEY         SUNNY     51  31  46 NE5       30.17F
EVANSTON, WY     N/A     50  18  28 SW6       30.29S
ROCK SPRINGS   SUNNY     49  15  25 CALM      30.29S

$$



USA.gov is the U.S. government's official web portal to all federal, state and local government web resources and services.